Regional Weather Roundup
Issued by NWS

Home | Current Version | Previous Version | Text Only | Print | Product List | Glossary Off
Versions: 1 2 3 4 5 6 7 8 9 10 11 12 13 14 15 16 17 18 19 20 21 22 23 24 25 26 27 28 29 30 31 32 33 34 35 36 37 38 39 40 41 42 43 44 45 46 47 48 49 50

000
ASUS43 KLSX 231307
RWRMO

WEATHER SUMMARY FOR MISSOURI
NATIONAL WEATHER SERVICE SPRINGFIELD MO
800 AM CDT FRI JUN 23 2017

NOTE: "FAIR" INDICATES FEW OR NO CLOUDS BELOW 12,000 FEET WITH NO
       SIGNIFICANT WEATHER AND/OR OBSTRUCTIONS TO VISIBILITY.
       CURRENT SKY AND/OR WEATHER CONDITIONS ARE NOT AVAILABLE FOR
       CHILLICOTHE AND FARMINGTON.

MOZ001>031-035>038-043-044-053-054-231400-
...NORTHERN AND WESTERN MISSOURI...

CITY           SKY/WX    TMP DP  RH WIND       PRES   REMARKS
KANSAS CTY INT CLOUDY    71  66  84 N15       29.83R
KANSAS C DTWN  CLOUDY    74  67  78 N12       29.80R
LEE`S SUMMIT   LGT RAIN  73  70  90 N15       29.80R
ST JOSEPH      PTSUNNY   72  65  78 N12       29.85R
CHILLICOTHE      N/A     74  70  87 VRB7      29.82R
KIRKSVILLE     CLOUDY    69  67  93 N12       29.78R

$$
MOZ066>068-077>081-088>096-101>105-231400-
...SOUTHWEST MISSOURI...

CITY           SKY/WX    TMP DP  RH WIND       PRES   REMARKS
SPRINGFIELD    MOSUNNY   76  73  91 W5        29.77R
JOPLIN         SUNNY     78  75  90 W7        29.77R
BRANSON        CLOUDY    73  72  94 CALM      29.78R

$$
MOZ032>034-039>042-045>050-055>058-069>072-231400-
...CENTRAL MISSOURI...

CITY           SKY/WX    TMP DP  RH WIND       PRES   REMARKS
COLUMBIA       MOSUNNY   73  69  87 N12       29.74F
JEFFERSON CITY MOSUNNY   73  66  78 CALM      29.73F
ROLLA          PTSUNNY   73  69  87 N7        29.75R
SEDALIA        CLOUDY    75  74  96 E9        29.76R
WHITEMAN AFB   PTSUNNY   74  74 100 N15G22    29.74R
WARRENSBURG    CLOUDY    72  68  88 N10G17    29.76R
OSAGE BEACH    PTSUNNY   75  72  90 SW3       29.74R

$$
MOZ051-052-059>065-231400-
...EAST CENTRAL MISSOURI...

CITY           SKY/WX    TMP DP  RH WIND       PRES   REMARKS
ST LOUIS INTL  LGT RAIN  78  73  84 W8        29.72S
SPIRIT OF STL  CLOUDY    77  73  87 SW6       29.69F
ST CHARLES     MOSUNNY   78  74  87 S6        29.68F

$$
MOZ072>076-082>087-097>100-106>115-231400-
...SOUTH CENTRAL AND SOUTHEAST MISSOURI...

CITY           SKY/WX    TMP DP  RH WIND       PRES   REMARKS
CAPE GIRARDEAU LGT RAIN  75  73  93 S8        29.71S FOG
FARMINGTON     CLOUDY    77  74  90 CALM      29.75R
POPLAR BLUFF   CLOUDY    75  74  96 E5        29.69R
WEST PLAINS    CLOUDY    75  73  93 N7        29.75R

$$



USA.gov is the U.S. government's official web portal to all federal, state and local government web resources and services.